Helicity
-8 2 36 43 63 105 170 179 135 115 74 59 17 -13 22 19 23 12 19 20 20 21 29 36 42 33 16 19 53 75 62 44 28 23 28 35 43 51 53 51 53 55 60 59
-42 -27 -3 15 11 44 108 120 167 137 115 69 42 14 37 55 54 33 32 32 39 48 47 43 34 26 28 35 44 56 38 46 52 35 41 42 53 56 58 55 56 67 67 71
-14 18 3 2 29 104 104 113 107 86 135 43 61 37 34 40 25 27 25 23 34 28 24 22 17 19 30 29 22 9 32 53 49 54 56 53 62 67 70 71 75 79 81 83
-21 19 -29 22 26 42 63 41 57 43 76 49 18 14 5 9 18 28 9 -11 4 32 35 29 23 29 25 30 15 -2 22 47 63 69 63 66 72 82 87 96 91 97 97 98
-3 -14 -2 52 49 57 46 39 46 44 49 37 21 6 7 19 37 2 -26 -29 16 16 27 13 24 22 31 46 18 5 43 54 73 78 71 79 84 102 111 116 110 108 118 111
61 33 19 65 58 59 61 60 89 92 75 -5 -47 -42 -26 -3 12 1 4 12 -3 25 11 -21 -63 -23 -2 43 21 41 54 62 82 71 78 93 110 120 136 138 132 136 119 129
79 83 66 49 47 70 108 89 97 76 35 -23 -41 -3 13 34 48 30 17 7 22 42 64 59 -40 -20 0 48 38 46 37 45 62 82 92 106 114 141 138 135 140 139 139 139
94 87 86 68 118 144 79 71 52 44 17 9 12 18 9 -6 -4 4 14 25 30 10 22 45 60 54 20 35 64 32 32 43 63 77 99 110 105 114 137 147 155 159 169 163
80 80 74 32 67 31 61 88 73 43 54 21 -5 -17 -13 -6 16 26 30 34 38 27 27 36 59 66 39 60 69 65 48 48 49 65 87 100 109 117 147 166 181 172 188 183
96 81 106 68 58 80 95 79 40 -6 -22 -1 -13 -7 -5 17 29 28 23 19 25 31 36 37 39 51 59 66 80 61 65 85 70 69 86 110 132 144 159 173 179 181 186 172
108 82 86 142 143 79 29 3 -12 -21 -12 21 28 28 3 17 23 19 16 20 12 11 25 30 38 48 66 76 75 53 46 51 55 59 64 82 93 114 142 159 178 177 170 170
72 111 102 89 57 64 39 28 44 43 71 63 20 15 21 33 30 22 34 46 42 28 19 22 32 42 67 75 63 59 74 86 78 82 99 108 112 111 76 63 74 76 72 103
105 74 59 68 50 61 67 61 92 101 89 89 68 46 47 45 42 24 29 29 25 33 40 30 24 22 43 61 79 88 95 107 106 103 99 99 103 107 140 102 55 49 51 52
128 96 90 91 86 110 113 113 106 86 76 81 85 87 64 63 70 61 52 34 22 19 27 13 21 32 40 43 58 74 87 84 92 96 100 105 102 116 110 139 158 126 70 59
103 110 112 92 120 134 125 113 134 141 130 116 68 62 70 92 95 97 82 52 33 14 9 22 22 34 35 47 61 69 79 89 94 106 108 106 109 124 117 113 110 111 86 53
109 108 132 134 134 134 105 108 79 75 72 87 103 103 100 88 74 66 56 52 41 51 39 31 39 34 30 46 66 93 107 107 120 154 141 126 115 112 104 89 80 70 62 50
128 157 141 149 142 108 87 80 49 51 50 44 17 37 58 71 88 73 57 52 38 61 58 41 3 17 63 105 140 159 160 161 123 130 129 118 118 109 92 78 69 59 47 41
39 38 23 26 37 59 60 60 63 67 41 26 26 24 24 40 63 118 125 82 40 -5 19 59 53 23 73 126 127 132 126 133 131 127 118 101 97 94 77 65 62 62 63 75
39 41 41 38 44 44 44 36 44 55 59 60 63 61 57 53 45 35 24 42 21 -17 -11 48 69 31 3 55 99 107 114 108 105 112 118 86 96 112 107 105 95 96 94 83
43 35 32 32 33 41 46 64 74 75 73 92 86 79 63 63 52 33 29 25 36 27 27 39 65 76 65 45 30 76 76 75 64 86 111 106 96 94 106 92 110 113 104 101
44 42 36 46 64 87 88 100 102 98 112 125 117 98 87 76 72 78 79 55 55 8 22 11 32 44 56 66 66 72 79 69 82 87 83 82 76 81 102 111 123 126 122 128
49 56 74 101 118 121 139 149 138 126 117 95 85 82 75 71 58 51 61 83 75 21 4 27 8 14 56 63 62 75 102 92 94 98 107 107 104 90 94 107 106 94 100 94
84 96 113 127 139 138 125 120 102 101 94 83 87 82 88 96 99 93 73 50 40 46 58 55 42 40 52 75 70 48 40 65 85 101 104 111 120 124 116 115 128 134 132 118
117 121 126 131 125 142 121 88 87 89 87 70 85 105 117 95 77 98 109 75 51 54 56 42 9 6 29 59 57 63 62 53 68 80 94 75 114 121 135 128 125 125 125 99
120 121 130 131 118 117 107 105 93 75 53 72 100 125 133 168 186 124 98 107 56 51 56 30 -19 -8 49 59 65 74 85 97 95 86 89 103 113 113 102 100 103 97 96 99
114 116 121 103 119 116 115 113 115 99 96 117 133 142 131 156 164 139 120 93 70 56 64 59 48 50 65 53 52 58 66 76 75 88 96 103 93 85 87 92 91 87 90 92
134 103 121 114 122 138 146 142 133 126 112 144 159 161 134 124 128 109 87 95 83 80 69 50 36 33 63 72 72 71 72 80 79 93 98 86 83 85 90 81 76 82 87 91
Wind_Speed
48 49 46 40 28 14 8 15 27 51 39 59 66 64 58 64 67 70 71 61 55 61 63 60 59 63 67 71 61 38 59 64 67 62 57 53 49 39 26 25 25 26 27 27
40 41 44 49 50 47 45 43 46 48 56 50 47 46 62 65 69 64 59 57 56 55 57 58 58 60 63 65 60 54 66 68 64 62 57 56 49 37 32 26 28 31 27 23
33 41 45 45 43 34 10 4 9 28 22 9 54 51 58 61 58 54 57 60 63 62 63 65 66 65 65 61 58 62 66 67 66 62 59 59 50 42 33 30 31 32 31 29
36 47 25 30 40 29 10 12 6 6 4 35 44 47 56 56 47 60 67 72 75 65 59 68 69 70 68 60 64 66 66 67 66 63 62 61 54 46 39 36 33 35 36 35
14 12 43 37 30 25 25 32 30 31 31 30 46 59 63 51 50 70 79 81 75 33 25 27 76 78 73 68 70 71 72 70 67 62 63 62 60 51 43 45 40 35 37 40
31 28 24 27 29 30 31 34 32 28 37 53 60 69 61 62 73 85 85 82 85 80 24 20 57 79 77 73 74 76 75 74 69 64 61 61 60 56 53 48 50 48 44 41
22 38 47 41 42 31 33 34 40 46 56 67 64 61 73 81 86 84 86 89 84 80 68 46 62 79 80 69 76 77 73 70 69 63 63 63 64 59 57 54 55 54 52 51
27 34 47 33 29 40 41 46 48 56 64 70 73 80 85 87 89 88 87 86 82 85 83 79 78 74 78 77 74 71 70 69 68 68 66 64 65 66 62 61 61 61 62 62
26 36 35 31 35 47 42 51 60 67 70 72 78 82 83 84 83 82 82 83 82 82 84 81 78 72 77 76 71 70 72 75 79 77 72 66 67 69 68 64 66 66 65 64
42 41 38 48 55 41 57 61 62 66 74 74 77 77 80 79 81 83 82 84 82 83 83 84 80 79 76 72 67 70 76 80 80 79 78 73 72 71 70 69 69 68 68 67
51 59 58 42 49 53 58 62 68 71 71 70 72 75 77 81 83 84 85 85 83 83 83 83 81 80 77 71 70 74 76 78 77 75 74 73 71 70 70 66 64 68 66 64
63 49 52 56 56 61 67 69 68 67 67 65 66 72 74 79 81 83 86 87 86 85 84 83 81 80 78 74 69 72 74 73 71 70 69 67 67 68 61 59 60 60 61 61
54 54 55 56 53 61 62 62 62 62 64 69 70 73 76 79 78 81 82 83 84 87 87 84 81 79 75 73 69 67 68 69 69 68 66 64 63 63 69 64 59 57 57 58
53 58 59 61 63 61 59 59 60 60 63 67 71 73 76 80 83 84 85 85 84 84 84 81 80 79 74 70 66 65 65 66 66 65 62 61 60 60 60 62 67 65 60 63
53 52 52 54 55 58 60 62 66 69 72 75 73 76 80 85 87 89 87 84 85 86 85 85 83 80 72 67 65 64 63 61 59 58 57 56 57 59 60 62 65 66 68 67
51 51 52 53 57 60 63 67 70 75 76 78 81 84 85 85 87 89 88 86 87 91 89 87 85 78 71 65 60 57 55 53 53 54 55 57 58 63 66 68 71 73 74 76
55 59 62 65 66 69 71 73 74 80 84 85 86 87 87 88 87 86 87 87 86 89 88 82 77 70 65 58 54 54 55 55 57 57 60 63 65 68 71 72 74 76 78 76
49 51 53 57 64 70 75 77 80 83 84 85 86 88 90 90 91 92 92 92 91 90 86 82 74 71 63 60 60 60 61 64 66 68 70 72 76 77 79 81 81 83 83 82
56 61 64 68 70 75 78 80 80 82 86 86 89 93 92 91 91 92 91 92 91 91 93 83 81 80 78 71 67 68 71 75 76 76 75 77 80 78 78 77 79 80 79 78
65 66 69 73 75 77 82 81 83 87 89 90 91 94 97 97 93 94 93 95 89 84 86 87 86 83 82 81 77 75 74 74 75 76 74 75 76 75 72 72 71 72 74 73
73 76 79 81 85 84 83 83 87 90 92 91 93 96 98 99 98 95 97 99 97 85 86 87 85 86 85 84 82 78 77 76 74 74 75 75 74 74 73 72 71 71 71 69
82 85 88 89 88 89 87 85 85 88 90 89 89 90 92 95 94 92 84 85 93 92 88 92 91 91 92 93 86 82 81 78 76 73 73 73 72 74 75 75 75 74 73 71
87 86 87 88 88 89 90 88 87 85 85 83 82 85 86 87 86 89 95 91 83 88 90 92 93 95 95 92 87 83 83 80 78 75 73 73 73 74 78 79 77 73 72 72
86 86 86 84 83 85 91 90 84 80 75 73 75 78 81 87 90 80 77 84 90 89 90 91 94 95 92 87 85 80 79 79 75 73 72 73 73 75 73 74 75 73 72 73
85 85 83 84 85 84 80 79 76 73 69 71 76 77 74 69 69 84 83 85 92 88 85 86 91 88 82 79 79 79 77 73 70 71 71 71 70 67 66 66 67 66 64 63
85 81 77 73 73 71 70 68 68 65 66 73 76 75 74 72 72 75 77 77 85 87 81 81 85 82 77 80 77 76 73 71 69 67 65 62 63 65 64 62 62 63 62 60
78 73 72 70 63 61 62 62 62 68 69 69 74 69 73 76 74 74 76 80 83 81 77 80 86 87 81 77 74 70 68 66 61 60 56 57 59 59 58 58 60 59 57 55
Wind_Direction
242 248 294 302 307 309 227 213 309 293 238 251 271 276 275 287 291 295 306 325 329 322 316 317 312 303 294 291 300 308 289 278 268 278 288 296 305 321 340 348 354 359 3 6
221 219 214 223 218 209 208 210 220 229 242 246 246 322 298 300 313 323 333 332 335 334 326 321 318 315 313 311 307 297 277 276 280 282 290 293 306 321 330 338 341 343 349 354
201 265 260 233 225 190 157 21 199 210 216 325 309 319 313 320 330 338 336 336 333 334 327 318 313 315 317 319 308 286 277 277 280 285 291 292 305 315 323 328 331 333 336 340
214 276 174 315 300 337 356 359 20 202 302 334 324 321 313 328 339 326 327 324 325 337 333 317 310 308 312 316 297 280 281 281 282 286 291 294 303 310 316 320 322 325 327 330
55 100 249 315 337 346 350 333 340 338 339 348 329 319 319 335 338 319 310 310 326 343 336 334 305 301 306 304 291 282 280 284 286 290 292 295 300 306 311 313 316 318 322 323
334 341 349 344 337 339 340 332 335 343 335 323 323 313 328 326 316 303 307 313 310 318 328 295 265 293 296 297 288 283 284 283 290 294 296 298 301 305 308 310 310 314 316 317
315 316 308 310 313 331 325 329 325 321 316 314 319 322 315 311 312 317 315 312 314 316 326 332 281 293 291 301 290 285 289 290 292 297 299 300 301 305 306 308 308 309 311 313
317 313 308 324 329 315 320 323 323 321 318 314 313 312 311 311 312 314 316 318 319 310 309 312 311 311 296 295 296 291 291 294 297 298 301 303 302 303 303 304 305 306 308 309
310 314 317 322 320 322 325 318 317 318 318 316 313 313 315 315 317 318 319 320 321 317 312 312 310 311 305 299 298 294 294 295 295 299 301 303 303 302 302 303 303 304 306 307
313 319 312 309 311 320 313 313 316 316 313 315 313 315 313 316 317 318 322 321 324 321 318 314 314 308 307 306 303 299 295 296 298 300 301 302 302 303 302 302 302 303 305 306
302 301 306 315 317 318 317 315 313 314 316 316 315 314 315 315 317 318 319 321 323 322 321 318 317 314 311 308 305 302 300 300 302 304 304 304 304 304 304 304 304 305 305 306
298 307 306 306 313 315 314 315 317 318 319 322 322 320 322 322 322 321 320 322 322 323 322 321 320 316 313 312 311 307 304 305 306 307 307 308 308 309 310 309 309 308 308 308
299 305 308 311 315 317 316 318 320 320 321 319 322 323 324 323 326 326 327 327 325 322 322 322 321 319 318 316 314 311 309 308 308 309 310 311 311 311 309 312 313 313 314 314
308 307 305 311 309 315 318 320 322 324 325 325 325 326 325 324 324 324 325 326 327 327 326 326 324 322 321 319 316 313 311 311 310 310 311 312 313 313 314 313 313 315 317 316
312 314 313 314 316 318 320 321 320 321 322 323 325 324 324 323 323 323 324 325 325 325 326 326 324 322 323 321 318 315 314 313 314 314 314 315 315 314 314 314 312 313 315 317
315 317 318 317 317 318 320 320 319 319 321 321 322 322 322 322 322 322 324 325 325 323 324 325 325 324 322 321 320 319 319 318 318 317 317 316 316 314 312 311 310 310 312 313
314 312 313 313 317 317 317 318 318 318 317 317 318 319 320 321 321 322 322 324 324 324 323 323 325 328 328 326 324 322 320 319 317 317 314 313 313 311 310 309 309 309 310 313
322 320 321 320 319 318 317 317 317 318 319 320 319 319 318 318 318 319 319 321 321 320 322 322 321 323 322 320 319 317 315 313 313 310 309 308 308 307 305 304 305 306 309 311
320 319 317 316 317 316 316 315 316 316 317 318 318 317 316 316 316 316 317 316 318 317 317 320 319 316 314 313 310 310 308 306 306 307 307 307 308 308 307 307 306 308 310 313
318 318 318 317 318 317 315 315 315 315 316 316 316 315 314 314 314 314 313 311 313 315 315 314 314 313 313 311 310 307 306 306 306 306 308 309 310 310 311 311 311 312 313 314
316 316 315 314 314 315 314 314 314 313 314 315 314 313 313 312 312 312 310 309 309 313 313 312 311 310 309 309 309 307 306 305 306 306 307 309 309 309 310 311 312 313 314 315
313 313 313 312 312 313 315 315 315 315 315 315 315 316 316 315 315 313 313 312 311 310 311 310 308 305 304 304 304 303 303 303 304 306 307 308 308 309 309 311 311 311 311 312
312 312 312 312 312 313 314 315 314 315 315 315 317 319 320 320 320 318 313 314 315 313 312 311 310 307 304 302 301 300 300 301 302 303 305 306 308 309 309 309 310 311 312 312
314 313 313 313 313 314 312 314 314 316 317 317 319 321 322 322 321 323 321 319 317 314 311 310 311 308 305 304 301 301 300 300 301 302 304 306 308 309 310 310 310 310 310 311
315 314 313 313 313 314 317 317 318 318 319 320 322 324 325 327 324 323 323 321 319 317 314 313 312 310 309 307 304 301 302 302 302 303 305 307 309 311 313 314 314 315 316 315
314 313 314 315 316 318 320 321 319 319 320 319 323 325 326 326 326 326 325 324 323 319 316 316 317 315 312 309 307 304 302 303 304 305 307 310 311 311 314 316 317 317 318 318
315 315 315 315 318 320 321 321 320 317 319 321 321 325 325 325 326 328 327 326 325 322 318 316 315 312 311 309 308 307 306 307 308 309 311 313 313 314 316 319 321 323 323 323